This demonstration page uses our WeatherBlox Daily Observations layout. Learn more.

Hourly Observations for October 7, 2016

Temp ( °F °C ) Dew Point ( °F °C ) Humidity (%) Winds ( mph kmh ) Pressure ( in mb ) Visibility ( mi km ) Precip ( " mm )
12:15 am 00:15 Clear 36 2 32 0.2 88 88 NNW 9 15 30.3 1026 10 16.09344 0 0
12:35 am 00:35 Clear 35 1.7 32 0 89 89 NNW 6 9 30.27 1025 10 16.09344 0 0
12:55 am 00:55 Clear 34 1.3 32 0 91 91 Calm 30.33 1027 10 16.09344 0 0
1:15 am 01:15 Clear 33 0.8 31 -0.3 92 92 NNW 6 9 30.33 1027 10 16.09344 0 0
1:35 am 01:35 Clear 33 0.5 31 -0.5 93 93 NW 6 9 30.33 1027 10 16.09344 0 0
1:55 am 01:55 Clear 33 0.7 32 -0.1 94 94 NW 8 13 30.33 1027 10 16.09344 0 0
2:15 am 02:15 Clear 33 0.8 32 -0.2 93 93 NW 6 9 30.36 1028 10 16.09344 0 0
2:35 am 02:35 Clear 33 0.6 32 -0.2 94 94 WNW 6 9 30.36 1028 10 16.09344 0 0
2:55 am 02:55 Clear 32 0.2 31 -0.6 94 94 WNW 3 6 30.36 1028 10 16.09344 0 0
3:15 am 03:15 Clear 32 -0.1 30 -1.1 93 93 WNW 3 6 30.36 1028 10 16.09344 0 0
3:35 am 03:35 Clear 32 0 30 -0.9 94 94 W 3 6 30.39 1029 10 16.09344 0 0
3:55 am 03:55 Clear 32 0 30 -0.9 94 94 WSW 3 6 30.39 1029 10 16.09344 0 0
4:15 am 04:15 Clear 32 -0.2 30 -1.1 94 94 W 3 6 30.39 1029 10 16.09344 0 0
4:35 am 04:35 Clear 32 -0.2 30 -1.1 94 94 WSW 3 6 30.39 1029 10 16.09344 0 0
4:55 am 04:55 Clear 31 -0.3 30 -1.3 93 93 WSW 5 7 30.39 1029 10 16.09344 0 0
5:15 am 05:15 Clear 30 -1 29 -1.9 94 94 WSW 3 6 30.42 1030 10 16.09344 0 0
5:35 am 05:35 Clear 31 -0.5 30 -1.2 95 95 W 6 9 30.42 1030 10 16.09344 0 0
5:55 am 05:55 Clear 31 -0.5 30 -1.3 94 94 W 7 11 30.42 1030 10 16.09344 0 0
6:15 am 06:15 Clear 31 -0.4 30 -1.2 94 94 W 5 7 30.42 1030 10 16.09344 0 0
6:35 am 06:35 Clear 31 -0.5 30 -1.2 95 95 W 7 11 30.42 1030 10 16.09344 0 0
6:55 am 06:55 Clear 32 -0.2 30 -1 94 94 W 6 9 30.42 1030 10 16.09344 0 0
7:15 am 07:15 Clear 31 -0.3 30 -1.1 94 94 W 7 11 30.42 1030 10 16.09344 0 0
7:35 am 07:35 Clear 32 -0.2 30 -1 94 94 W 8 13 30.42 1030 10 16.09344 0 0
7:55 am 07:55 Sunny 32 0 31 -0.7 95 95 W 8 13 30.45 1031 10 16.09344 0 0
8:15 am 08:15 Sunny 33 0.5 32 -0.2 95 95 W 7 11 30.45 1031 10 16.09344 0 0
8:35 am 08:35 Sunny 34 1.1 32 0 92 92 W 6 9 30.45 1031 10 16.09344 0 0
8:55 am 08:55 Sunny 36 2.2 33 0.8 91 91 W 8 13 30.45 1031 10 16.09344 0 0
9:15 am 09:15 Sunny 39 3.7 36 2 89 89 W 7 11 30.42 1030 10 16.09344 0 0
9:35 am 09:35 Sunny 41 5.2 37 3 86 86 WNW 7 11 30.42 1030 10 16.09344 0 0
9:55 am 09:55 Sunny 44 6.8 38 3.6 80 80 W 6 9 30.39 1029 10 16.09344 0 0
10:15 am 10:15 Sunny 47 8.5 38 3.3 70 70 W 7 11 30.39 1029 10 16.09344 0 0
10:35 am 10:35 Sunny 49 9.4 37 2.5 62 62 W 8 13 30.36 1028 10 16.09344 0 0
10:55 am 10:55 Sunny 51 10.7 35 1.9 55 55 W 9 15 30.36 1028 10 16.09344 0 0
11:15 am 11:15 Sunny 53 11.4 35 1.9 52 52 W 9 15 30.36 1028 10 16.09344 0 0
11:35 am 11:35 Sunny 54 12.2 35 1.4 48 48 W 8 13 30.36 1028 10 16.09344 0 0
11:55 am 11:55 Sunny 55 12.8 34 0.9 44 44 W 7 11 30.33 1027 10 16.09344 0 0
12:15 pm 12:15 Sunny 56 13.4 33 0.7 42 42 SW 7 11 30.33 1027 10 16.09344 0 0
12:35 pm 12:35 Sunny 56 13.6 33 0.5 41 41 WSW 7 11 30.33 1027 10 16.09344 0 0
12:55 pm 12:55 Sunny 57 13.8 32 0.1 39 39 SW 9 15 30.33 1027 10 16.09344 0 0
1:15 pm 13:15 Sunny 59 15.2 31 -0.3 35 35 SW 6 9 30.3 1026 10 16.09344 0 0
1:35 pm 13:35 Sunny 60 15.6 30 -1.1 32 32 SW 12 19 30.27 1025 10 16.09344 0 0
1:55 pm 13:55 Sunny 61 15.9 31 -0.4 33 33 SSW 10 17 30.27 1025 10 16.09344 0 0
2:15 pm 14:15 Sunny 61 16 32 0 34 34 WSW 8 13 30.24 1024 10 16.09344 0 0
2:35 pm 14:35 Sunny 62 16.9 30 -1.1 30 30 WSW 9 15 30.24 1024 10 16.09344 0 0
2:55 pm 14:55 Sunny 63 17 31 -0.6 30 30 WSW 12 19 30.24 1024 10 16.09344 0 0
3:15 pm 15:15 Sunny 64 17.7 30 -0.9 28 28 W 9 15 30.21 1023 10 16.09344 0 0
3:35 pm 15:35 Sunny 64 18 30 -1.2 27 27 SW 10 17 30.21 1023 10 16.09344 0 0
3:55 pm 15:55 Sunny 65 18.1 30 -1.2 27 27 SW 7 11 30.21 1023 10 16.09344 0 0
4:15 pm 16:15 Sunny 65 18.4 30 -1 27 27 SW 12 19 30.18 1022 10 16.09344 0 0
4:35 pm 16:35 Sunny 65 18.6 30 -1.1 26 26 SW 13 20 30.18 1022 10 16.09344 0 0
4:55 pm 16:55 Sunny 66 18.8 29 -1.4 26 26 SW 13 20 30.15 1021 10 16.09344 0 0
5:15 pm 17:15 Sunny 66 18.7 29 -1.6 25 25 SW 7 11 30.15 1021 10 16.09344 0 0
5:35 pm 17:35 Sunny 66 18.9 29 -1.7 25 25 WSW 7 11 30.15 1021 10 16.09344 0 0
5:55 pm 17:55 Sunny 65 18.6 29 -1.8 25 25 SW 9 15 30.15 1021 10 16.09344 0 0
6:15 pm 18:15 Sunny 65 18.5 29 -1.9 25 25 SSW 7 11 30.15 1021 10 16.09344 0 0
6:35 pm 18:35 Sunny 64 17.8 29 -1.7 27 27 S 5 7 30.18 1022 10 16.09344 0 0
6:55 pm 18:55 Sunny 62 16.5 29 -1.5 29 29 S 6 9 30.18 1022 10 16.09344 0 0
7:15 pm 19:15 Clear 58 14.5 29 -1.5 33 33 S 7 11 30.21 1023 10 16.09344 0 0
7:35 pm 19:35 Clear 55 13 30 -1.2 38 38 S 7 11 30.21 1023 10 16.09344 0 0
7:55 pm 19:55 Clear 53 11.8 30 -1 41 41 S 7 11 30.21 1023 10 16.09344 0 0
8:15 pm 20:15 Clear 52 11.3 31 -0.7 44 44 S 7 11 30.21 1023 10 16.09344 0 0
8:35 pm 20:35 Clear 51 10.3 31 -0.5 47 47 S 7 11 30.24 1024 10 16.09344 0 0
8:55 pm 20:55 Clear 50 9.9 31 -0.5 49 49 S 7 11 30.24 1024 10 16.09344 0 0
9:15 pm 21:15 Clear 51 10.5 32 0 49 49 S 8 13 30.24 1024 10 16.09344 0 0
9:35 pm 21:35 Clear 51 10.5 32 0 49 49 S 8 13 30.24 1024 10 16.09344 0 0
9:55 pm 21:55 Clear 49 9.6 32 0 52 52 S 7 11 30.24 1024 10 16.09344 0 0
10:15 pm 22:15 Clear 48 8.9 32 0 54 54 S 6 9 30.24 1024 10 16.09344 0 0
10:35 pm 22:35 Clear 47 8.6 32 0 55 55 S 7 11 30.24 1024 10 16.09344 0 0
10:55 pm 22:55 Clear 47 8.6 32 0 55 55 S 7 11 30.24 1024 10 16.09344 0 0
11:15 pm 23:15 Clear 47 8.3 32 0.1 57 57 S 7 11 30.24 1024 10 16.09344 0 0
11:35 pm 23:35 Clear 48 8.8 32 0.2 55 55 S 8 13 30.24 1024 10 16.09344 0 0
11:55 pm 23:55 Clear 48 8.8 33 0.5 56 56 S 8 13 30.24 1024 10 16.09344 0 0

Powered by AerisWeather